186P/Garradd (2008)

Japanese version
Home page
Updated on September 11, 2013

---------------------------------------------------------------------

* Profile

Designation 186P/2007 B3
Discovery Date January 25, 2007
Magnitude 18.0 mag
Discoverer G. J. Garradd (Siding Spring Survey)

* Pictures

* Orbital Elements

The following orbital elements are taken from MPC 75723:

Epoch 2008 Apr. 4.0 TT = JDT 2454560.5
T 2008 Mar. 20.4545 TT                                  MPC
q   4.263476             (2000.0)            P               Q
n   0.0926746      Peri.  278.7377      -0.3320074      +0.9076823
a   4.836103       Node   327.8558      -0.5570475      -0.4082638
e   0.118407       Incl.   28.8444      -0.7612288      -0.0971257
P  10.6
From 168 observations 1975-2009, mean residual 0".6.

* Magnitudes Graph

        m1 = 8.5 + 5 log d + 10.0 log r

---------------------------------------------------------------------

The orbital elements are published at the MPC Ephemerides and Orbital Elements.
The magnitudes graphs are made with Comet for Windows.

---------------------------------------------------------------------

Copyright(C) Seiichi Yoshida (comet@aerith.net). All rights reserved.